Showing default

OBSERVER-1A, 58323

Orbit data source: Space-Track

OBSERVER-1A, 58323 is a payload satellite owned by Nara Space (KR) in SSO that was launched on Sat, 11 Nov 2023 UTC via an FALCON 9 launch vehicle from the Air Force Western Test Range (AFWTR). Payload-class satellites include a variety of spacecraft equipped with specific instruments for various scientific and technological missions. These include communications satellites like Starlink; space stations such as the ISS; scientific satellites like the Hubble; Earth observation satellites from companies like Planet Labs, Umbra, and HawkEye 360; GPS; miniature CubeSats for education and research; and military/defense satellites.

Loading next visibility...
Identifier
58323, 2023-174BV
Orbit
SSO
Country
Flag of UnknownUnknown / SKOR
Related business
Manufacturer
Nara Space
Mission
Operational Commercial Imaging
Bus & Motor
CUBESAT 16U, Unknown motor
Mass
24 kg wet, 24 kg dry
Launch date (UTC)
2023-11-11 (2 years ago)
Launch vehicle
FALCON 9
Launch site
Air Force Western Test Range (AFWTR)
Object type
Payload
Rocket body
Debris
Shape & HBR
Box, 0.2 m
Radar Cross Section
0.100 m², Medium (>0.1 m² and < 1m²)

Expand to show TLE details & history
Last TLE update: 11 hours ago

TLE from 11 hours ago
0 OBSERVER-1A
1 58323U 23174BV  25289.22290573  .00018001  00000-0  59322-3 0  9998
2 58323  97.4168   6.8655 0008170 313.5300  46.5262 15.31488480107778
Epoch: 2025-10-16T05:20Z
TLE epoch observation values (Epoch: 2025-10-16T05:20:59.055Z)
Latitude
0.00002°
Longitude
-98.36628°
Altitude
470.628 km
Speed
7.633 km/s
True Right ascension
00h 27m 27s
True Declination
0° 00' 00"
Sunlit
Object was in full shadow at epoch
Visualization orbit readout
Latitude
Unknown
Longitude
Unknown
Altitude
Unknown
Speed
Unknown
Apparent Right ascension
Unknown
Apparent Declination
Unknown
Sunlit
N/A
Visualization observer readout
Local Sidereal Time
10:32:59
Azimuth
Unknown
Elevation
Unknown
Doppler factor
Unknown
Orbital elements
Apogee altitude
473.915 km
Perigee altitude
462.728 km
Semi-major axis
6,846.459 km
Eccentricity
0.00082
Inclination
97.4168°
RAAN
6.8655°
Arg. of periapsis
313.53°
True anomaly
46.59419°
Mean anomaly
46.5262°
Eccentric anomaly
46.56019°
Mean motion
3.83128 °/min
Orbital period
93.96 mins
BSTAR
0.00059322
Loading maneuver chart data...
Computing Atmospheric mass density...
Loading historical data...
Loading historical data...
Loading historical data...
Loading historical data...
Loading historical data...
Loading historical data...
Loading historical data...

Documentation

Showing up to 5 results
|